Time,TemperatureF,DewpointF,PressureIn,WindDirection,WindDirectionDegrees,WindSpeedMPH,WindSpeedGustMPH,Humidity,HourlyPrecipIn,Conditions,Clouds,dailyrainin,SoftwareType,DateUTC
2013-07-03 00:00:00,66.9,63.2,29.25,ENE,67,0.0,0.0,88,0.00,,,0.28,WUHU21623XXSP,2013-07-03 04:00:00,
2013-07-03 00:01:00,66.9,63.2,29.25,SE,135,0.0,0.0,88,0.00,,,0.00,WUHU21623XXSP,2013-07-03 04:01:00,
2013-07-03 00:02:00,66.9,63.2,29.25,SE,135,0.0,0.0,88,0.00,,,0.00,WUHU21623XXSP,2013-07-03 04:02:00,
2013-07-03 00:03:00,66.9,63.2,29.25,SE,135,0.0,0.0,88,0.00,,,0.00,WUHU21623XXSP,2013-07-03 04:03:00,
2013-07-03 00:04:00,66.9,63.2,29.25,SE,135,0.0,0.0,88,0.00,,,0.00,WUHU21623XXSP,2013-07-03 04:04:00,
2013-07-03 00:09:00,66.9,63.2,29.25,NNE,22,0.0,0.0,88,0.00,,,0.00,WUHU21623XXSP,2013-07-03 04:09:00,
2013-07-03 00:14:00,66.9,63.2,29.25,SSE,157,0.0,0.0,88,0.00,,,0.00,WUHU21623XXSP,2013-07-03 04:14:00,
2013-07-03 00:19:00,66.9,63.2,29.25,ESE,112,0.0,0.0,88,0.00,,,0.00,WUHU21623XXSP,2013-07-03 04:19:00,
2013-07-03 00:25:00,66.9,63.2,29.25,ESE,112,0.0,0.0,88,0.00,,,0.00,WUHU21623XXSP,2013-07-03 04:25:00,
2013-07-03 00:30:00,66.9,63.2,29.25,ESE,112,0.0,0.0,88,0.00,,,0.00,WUHU21623XXSP,2013-07-03 04:30:00,
2013-07-03 00:31:00,66.9,63.2,29.24,SSE,157,0.0,0.0,88,0.00,,,0.00,WUHU21623XXSP,2013-07-03 04:31:00,
2013-07-03 00:32:00,66.9,63.2,29.24,SE,135,1.6,1.6,88,0.00,,,0.00,WUHU21623XXSP,2013-07-03 04:32:00,
2013-07-03 00:37:00,66.9,63.2,29.24,SSE,157,0.0,1.6,88,0.00,,,0.00,WUHU21623XXSP,2013-07-03 04:37:00,
2013-07-03 00:42:00,66.9,63.2,29.24,East,90,0.0,1.6,88,0.00,,,0.00,WUHU21623XXSP,2013-07-03 04:42:00,
2013-07-03 00:45:00,66.9,63.2,29.24,East,90,0.0,0.0,88,0.00,,,0.00,WUHU21623XXSP,2013-07-03 04:45:00,
2013-07-03 00:46:00,66.9,63.2,29.24,NE,45,0.0,0.0,88,0.00,,,0.00,WUHU21623XXSP,2013-07-03 04:46:00,
2013-07-03 00:51:00,66.9,63.2,29.24,NE,45,0.0,0.0,88,0.00,,,0.00,WUHU21623XXSP,2013-07-03 04:51:00,
2013-07-03 00:53:00,66.9,63.2,29.24,NE,45,0.0,0.0,88,0.00,,,0.00,WUHU21623XXSP,2013-07-03 04:53:00,
2013-07-03 00:58:00,66.9,63.2,29.24,SE,135,0.0,0.0,88,0.00,,,0.00,WUHU21623XXSP,2013-07-03 04:58:00,
2013-07-03 01:03:00,66.9,63.2,29.25,SE,135,0.0,0.0,88,0.00,,,0.00,WUHU21623XXSP,2013-07-03 05:03:00,
2013-07-03 01:07:00,66.9,63.2,29.25,SW,225,0.0,0.0,88,0.00,,,0.00,WUHU21623XXSP,2013-07-03 05:07:00,
2013-07-03 01:09:00,66.9,63.2,29.25,SW,225,0.0,0.0,88,0.00,,,0.00,WUHU21623XXSP,2013-07-03 05:09:00,
2013-07-03 01:14:00,66.9,63.2,29.25,SE,135,0.0,0.0,88,0.00,,,0.00,WUHU21623XXSP,2013-07-03 05:14:00,
2013-07-03 01:19:00,66.9,63.2,29.24,SE,135,0.0,0.0,88,0.00,,,0.00,WUHU21623XXSP,2013-07-03 05:19:00,
2013-07-03 01:24:00,66.9,63.2,29.25,SE,135,0.0,0.0,88,0.00,,,0.00,WUHU21623XXSP,2013-07-03 05:24:00,
2013-07-03 01:29:00,66.9,63.2,29.24,SE,135,0.0,0.0,88,0.00,,,0.00,WUHU21623XXSP,2013-07-03 05:29:00,
2013-07-03 01:34:00,67.1,63.4,29.25,SE,135,0.0,0.0,88,0.00,,,0.00,WUHU21623XXSP,2013-07-03 05:34:00,
2013-07-03 01:39:00,67.1,63.2,29.26,ESE,112,0.0,0.0,88,0.00,,,0.00,WUHU21623XXSP,2013-07-03 05:39:00,
2013-07-03 01:44:00,67.1,63.4,29.25,ESE,112,0.0,0.0,88,0.00,,,0.00,WUHU21623XXSP,2013-07-03 05:44:00,
2013-07-03 01:49:00,67.1,63.4,29.25,ESE,112,0.0,0.0,88,0.00,,,0.00,WUHU21623XXSP,2013-07-03 05:49:00,
2013-07-03 01:54:00,67.1,63.7,29.25,SE,135,0.0,0.0,89,0.00,,,0.00,WUHU21623XXSP,2013-07-03 05:54:00,
2013-07-03 01:55:00,67.1,63.7,29.25,SE,135,0.0,0.0,89,0.00,,,0.00,WUHU21623XXSP,2013-07-03 05:55:00,
2013-07-03 01:57:00,67.1,63.7,29.25,ESE,112,0.7,0.7,89,0.00,,,0.00,WUHU21623XXSP,2013-07-03 05:57:00,
2013-07-03 01:58:00,67.1,63.7,29.24,South,180,0.0,0.7,89,0.00,,,0.00,WUHU21623XXSP,2013-07-03 05:58:00,
2013-07-03 02:03:00,67.1,63.7,29.24,South,180,0.0,0.7,89,0.00,,,0.00,WUHU21623XXSP,2013-07-03 06:03:00,
2013-07-03 02:08:00,66.9,63.5,29.24,SE,135,0.0,0.0,89,0.00,,,0.00,WUHU21623XXSP,2013-07-03 06:08:00,
2013-07-03 02:13:00,66.9,63.5,29.24,SE,135,0.0,0.0,89,0.00,,,0.00,WUHU21623XXSP,2013-07-03 06:13:00,
2013-07-03 02:14:00,66.9,63.5,29.24,SE,135,0.0,0.0,89,0.00,,,0.00,WUHU21623XXSP,2013-07-03 06:14:00,
2013-07-03 02:16:00,66.9,63.5,29.24,SE,135,0.0,0.0,89,0.00,,,0.00,WUHU21623XXSP,2013-07-03 06:16:00,
2013-07-03 02:18:00,66.9,63.5,29.24,SE,135,0.0,0.0,89,0.00,,,0.00,WUHU21623XXSP,2013-07-03 06:18:00,
2013-07-03 02:22:00,66.9,63.5,29.24,SSW,202,0.0,0.0,89,0.00,,,0.00,WUHU21623XXSP,2013-07-03 06:22:00,
2013-07-03 02:25:00,66.9,63.5,29.24,SE,135,0.0,0.0,89,0.00,,,0.00,WUHU21623XXSP,2013-07-03 06:25:00,
2013-07-03 02:26:00,66.9,63.5,29.24,SE,135,0.0,0.0,89,0.00,,,0.00,WUHU21623XXSP,2013-07-03 06:26:00,
2013-07-03 02:31:00,66.7,63.4,29.24,SE,135,0.0,0.0,89,0.00,,,0.00,WUHU21623XXSP,2013-07-03 06:31:00,
2013-07-03 02:32:00,66.7,63.4,29.24,SE,135,0.0,0.0,89,0.00,,,0.00,WUHU21623XXSP,2013-07-03 06:32:00,
2013-07-03 02:37:00,66.7,63.4,29.24,ESE,112,0.0,0.0,89,0.00,,,0.00,WUHU21623XXSP,2013-07-03 06:37:00,
2013-07-03 02:42:00,66.7,63.4,29.24,SE,135,0.0,0.0,89,0.00,,,0.00,WUHU21623XXSP,2013-07-03 06:42:00,
2013-07-03 02:43:00,66.7,63.4,29.24,South,180,0.0,0.0,89,0.00,,,0.00,WUHU21623XXSP,2013-07-03 06:43:00,
2013-07-03 02:48:00,66.7,63.4,29.24,SE,135,0.0,0.0,89,0.00,,,0.00,WUHU21623XXSP,2013-07-03 06:48:00,
2013-07-03 02:53:00,66.7,63.4,29.24,SSE,157,0.0,0.0,89,0.00,,,0.00,WUHU21623XXSP,2013-07-03 06:53:00,
2013-07-03 02:56:00,66.7,63.4,29.24,SSE,157,0.0,0.0,89,0.00,,,0.00,WUHU21623XXSP,2013-07-03 06:56:00,
2013-07-03 03:01:00,66.7,63.4,29.24,SE,135,0.0,0.0,89,0.00,,,0.00,WUHU21623XXSP,2013-07-03 07:01:00,
2013-07-03 03:06:00,66.7,63.4,29.24,SE,135,0.0,0.0,89,0.00,,,0.00,WUHU21623XXSP,2013-07-03 07:06:00,
2013-07-03 03:11:00,66.7,63.4,29.24,SSE,157,0.0,0.0,89,0.00,,,0.00,WUHU21623XXSP,2013-07-03 07:11:00,
2013-07-03 03:16:00,66.6,63.2,29.23,South,180,0.0,0.0,89,0.00,,,0.00,WUHU21623XXSP,2013-07-03 07:16:00,
2013-07-03 03:21:00,66.6,63.2,29.23,SSW,202,0.0,0.0,89,0.00,,,0.00,WUHU21623XXSP,2013-07-03 07:21:00,
2013-07-03 03:26:00,66.4,63.0,29.23,South,180,0.0,0.0,89,0.00,,,0.00,WUHU21623XXSP,2013-07-03 07:26:00,
2013-07-03 03:31:00,66.4,63.0,29.23,SSW,202,0.0,0.0,89,0.00,,,0.00,WUHU21623XXSP,2013-07-03 07:31:00,
2013-07-03 03:37:00,66.2,62.8,29.24,SSE,157,0.0,0.0,89,0.00,,,0.00,WUHU21623XXSP,2013-07-03 07:37:00,
2013-07-03 03:38:00,66.2,62.8,29.24,South,180,0.0,0.0,89,0.00,,,0.00,WUHU21623XXSP,2013-07-03 07:38:00,
2013-07-03 03:43:00,66.0,62.6,29.24,SSE,157,0.0,0.0,89,0.00,,,0.00,WUHU21623XXSP,2013-07-03 07:43:00,
2013-07-03 03:48:00,66.0,62.6,29.24,South,180,0.0,0.0,89,0.00,,,0.00,WUHU21623XXSP,2013-07-03 07:48:00,
2013-07-03 03:50:00,66.0,62.6,29.24,SSE,157,0.0,0.0,89,0.00,,,0.00,WUHU21623XXSP,2013-07-03 07:50:00,
2013-07-03 03:55:00,65.8,62.5,29.24,SSW,202,0.0,0.0,89,0.00,,,0.00,WUHU21623XXSP,2013-07-03 07:55:00,
2013-07-03 04:01:00,65.8,62.5,29.25,ENE,67,0.0,0.0,89,0.00,,,0.00,WUHU21623XXSP,2013-07-03 08:01:00,
2013-07-03 04:06:00,65.8,62.5,29.24,NW,315,0.0,0.0,89,0.00,,,0.00,WUHU21623XXSP,2013-07-03 08:06:00,
2013-07-03 04:09:00,65.5,62.2,29.25,South,180,0.0,0.0,89,0.00,,,0.00,WUHU21623XXSP,2013-07-03 08:09:00,
2013-07-03 04:14:00,65.5,62.2,29.24,SSW,202,0.0,0.0,89,0.00,,,0.00,WUHU21623XXSP,2013-07-03 08:14:00,
2013-07-03 04:18:00,65.5,62.2,29.25,SSE,157,0.0,0.0,89,0.00,,,0.00,WUHU21623XXSP,2013-07-03 08:18:00,
2013-07-03 04:23:00,65.5,62.2,29.24,SSE,157,0.0,0.0,89,0.00,,,0.00,WUHU21623XXSP,2013-07-03 08:23:00,
2013-07-03 04:28:00,65.5,62.2,29.24,SW,225,0.0,0.0,89,0.00,,,0.00,WUHU21623XXSP,2013-07-03 08:28:00,
2013-07-03 04:33:00,65.5,62.2,29.25,West,270,0.0,0.0,89,0.00,,,0.00,WUHU21623XXSP,2013-07-03 08:33:00,
2013-07-03 04:38:00,65.3,62.0,29.25,WSW,247,0.0,0.0,89,0.00,,,0.00,WUHU21623XXSP,2013-07-03 08:38:00,
2013-07-03 04:39:00,65.3,62.0,29.25,SSE,157,0.0,0.0,89,0.00,,,0.00,WUHU21623XXSP,2013-07-03 08:39:00,
2013-07-03 04:44:00,65.1,61.8,29.25,SSE,157,0.0,0.0,89,0.00,,,0.00,WUHU21623XXSP,2013-07-03 08:44:00,
2013-07-03 04:48:00,65.1,61.8,29.25,SSE,157,0.0,0.0,89,0.00,,,0.00,WUHU21623XXSP,2013-07-03 08:48:00,
2013-07-03 04:53:00,65.1,61.8,29.24,South,180,0.0,0.0,89,0.00,,,0.00,WUHU21623XXSP,2013-07-03 08:53:00,
2013-07-03 04:55:00,65.1,61.8,29.25,SW,225,0.0,0.0,89,0.00,,,0.00,WUHU21623XXSP,2013-07-03 08:55:00,
2013-07-03 04:56:00,65.1,61.8,29.25,SW,225,0.0,0.0,89,0.00,,,0.00,WUHU21623XXSP,2013-07-03 08:56:00,
2013-07-03 05:01:00,64.9,61.7,29.25,SSW,202,0.0,0.0,89,0.00,,,0.00,WUHU21623XXSP,2013-07-03 09:01:00,
2013-07-03 05:06:00,64.9,61.7,29.25,SSW,202,0.0,0.0,89,0.00,,,0.00,WUHU21623XXSP,2013-07-03 09:06:00,
2013-07-03 05:11:00,64.8,61.5,29.26,SSE,157,0.0,0.0,89,0.00,,,0.00,WUHU21623XXSP,2013-07-03 09:11:00,
2013-07-03 05:16:00,64.8,61.5,29.26,SSW,202,0.0,0.0,89,0.00,,,0.00,WUHU21623XXSP,2013-07-03 09:16:00,
2013-07-03 05:21:00,64.8,61.5,29.26,SSW,202,0.0,0.0,89,0.00,,,0.00,WUHU21623XXSP,2013-07-03 09:21:00,
2013-07-03 05:26:00,64.8,61.8,29.25,SSW,202,0.0,0.0,90,0.00,,,0.00,WUHU21623XXSP,2013-07-03 09:26:00,
2013-07-03 05:31:00,64.8,61.8,29.26,SSW,202,0.0,0.0,90,0.00,,,0.00,WUHU21623XXSP,2013-07-03 09:31:00,
2013-07-03 05:37:00,64.6,61.7,29.26,SSW,202,0.0,0.0,90,0.00,,,0.00,WUHU21623XXSP,2013-07-03 09:37:00,
2013-07-03 05:41:00,64.6,61.7,29.26,South,180,0.0,0.0,90,0.00,,,0.00,WUHU21623XXSP,2013-07-03 09:41:00,
2013-07-03 05:46:00,64.6,61.7,29.26,South,180,0.0,0.0,90,0.00,,,0.00,WUHU21623XXSP,2013-07-03 09:46:00,
2013-07-03 05:49:00,64.6,61.7,29.26,South,180,0.0,0.0,90,0.00,,,0.00,WUHU21623XXSP,2013-07-03 09:49:00,
2013-07-03 05:50:00,64.6,61.7,29.27,SSE,157,1.1,1.1,90,0.00,,,0.00,WUHU21623XXSP,2013-07-03 09:50:00,
2013-07-03 05:55:00,64.6,61.7,29.26,South,180,0.0,1.1,90,0.00,,,0.00,WUHU21623XXSP,2013-07-03 09:55:00,
2013-07-03 06:00:00,64.6,61.7,29.26,South,180,0.0,1.1,90,0.00,,,0.00,WUHU21623XXSP,2013-07-03 10:00:00,
2013-07-03 06:04:00,64.6,61.7,29.26,West,270,0.0,1.1,90,0.00,,,0.00,WUHU21623XXSP,2013-07-03 10:04:00,
2013-07-03 06:06:00,64.6,61.7,29.26,West,270,0.0,0.0,90,0.00,,,0.00,WUHU21623XXSP,2013-07-03 10:06:00,
2013-07-03 06:11:00,64.6,61.7,29.27,SW,225,0.0,0.0,90,0.00,,,0.00,WUHU21623XXSP,2013-07-03 10:11:00,
2013-07-03 06:16:00,64.6,61.7,29.26,SSW,202,0.0,0.0,90,0.00,,,0.00,WUHU21623XXSP,2013-07-03 10:16:00,
2013-07-03 06:21:00,64.6,61.7,29.27,South,180,0.0,0.0,90,0.00,,,0.00,WUHU21623XXSP,2013-07-03 10:21:00,
2013-07-03 06:26:00,64.6,61.7,29.27,South,180,0.0,0.0,90,0.00,,,0.00,WUHU21623XXSP,2013-07-03 10:26:00,
2013-07-03 06:31:00,64.6,61.7,29.27,South,180,0.0,0.0,90,0.00,,,0.00,WUHU21623XXSP,2013-07-03 10:31:00,
2013-07-03 06:36:00,64.6,61.7,29.27,South,180,0.0,0.0,90,0.00,,,0.00,WUHU21623XXSP,2013-07-03 10:36:00,
2013-07-03 06:41:00,64.6,61.7,29.27,SSE,157,0.0,0.0,90,0.00,,,0.00,WUHU21623XXSP,2013-07-03 10:41:00,
2013-07-03 06:46:00,64.6,61.7,29.27,SSE,157,0.0,0.0,90,0.00,,,0.00,WUHU21623XXSP,2013-07-03 10:46:00,
2013-07-03 06:49:00,64.6,61.7,29.28,SSE,157,0.0,0.0,90,0.00,,,0.00,WUHU21623XXSP,2013-07-03 10:49:00,
2013-07-03 06:54:00,64.6,61.7,29.27,SSW,202,2.0,2.0,90,0.00,,,0.00,WUHU21623XXSP,2013-07-03 10:54:00,
2013-07-03 06:55:00,64.6,61.7,29.27,SSW,202,2.0,2.0,90,0.00,,,0.00,WUHU21623XXSP,2013-07-03 10:55:00,
2013-07-03 06:57:00,64.6,61.7,29.27,South,180,0.0,2.0,90,0.00,,,0.00,WUHU21623XXSP,2013-07-03 10:57:00,
2013-07-03 07:02:00,64.6,61.7,29.28,South,180,0.0,2.0,90,0.00,,,0.00,WUHU21623XXSP,2013-07-03 11:02:00,
2013-07-03 07:07:00,64.4,61.5,29.28,ESE,112,0.0,0.0,90,0.00,,,0.00,WUHU21623XXSP,2013-07-03 11:07:00,
2013-07-03 07:09:00,64.4,61.5,29.28,ESE,112,0.0,0.0,90,0.00,,,0.00,WUHU21623XXSP,2013-07-03 11:09:00,
2013-07-03 07:11:00,64.6,61.7,29.28,SE,135,0.0,0.0,90,0.00,,,0.00,WUHU21623XXSP,2013-07-03 11:11:00,
2013-07-03 07:16:00,64.4,61.5,29.29,South,180,0.0,0.0,90,0.00,,,0.00,WUHU21623XXSP,2013-07-03 11:16:00,
2013-07-03 07:19:00,64.4,61.5,29.29,South,180,0.0,0.0,90,0.00,,,0.00,WUHU21623XXSP,2013-07-03 11:19:00,
2013-07-03 07:23:00,64.6,61.7,29.29,South,180,0.0,0.0,90,0.00,,,0.00,WUHU21623XXSP,2013-07-03 11:23:00,
2013-07-03 07:25:00,64.6,61.7,29.29,SSE,157,0.0,0.0,90,0.00,,,0.00,WUHU21623XXSP,2013-07-03 11:25:00,
2013-07-03 07:30:00,64.6,61.7,29.29,SSW,202,0.0,0.0,90,0.00,,,0.00,WUHU21623XXSP,2013-07-03 11:30:00,
2013-07-03 07:35:00,64.6,61.7,29.28,South,180,0.0,2.5,90,0.00,,,0.00,WUHU21623XXSP,2013-07-03 11:35:00,
2013-07-03 07:41:00,64.8,61.8,29.29,South,180,0.0,2.5,90,0.00,,,0.00,WUHU21623XXSP,2013-07-03 11:41:00,
2013-07-03 07:46:00,64.9,62.0,29.29,SSE,157,0.0,0.0,90,0.00,,,0.00,WUHU21623XXSP,2013-07-03 11:46:00,
2013-07-03 07:51:00,64.9,62.0,29.29,SW,225,0.0,0.0,90,0.00,,,0.00,WUHU21623XXSP,2013-07-03 11:51:00,
2013-07-03 07:56:00,65.1,62.2,29.28,SSE,157,0.0,0.0,90,0.00,,,0.00,WUHU21623XXSP,2013-07-03 11:56:00,
2013-07-03 08:00:00,65.1,62.2,29.29,South,180,0.0,0.0,90,0.00,,,0.00,WUHU21623XXSP,2013-07-03 12:00:00,
2013-07-03 08:02:00,65.1,62.2,29.29,South,180,0.0,0.0,90,0.00,,,0.00,WUHU21623XXSP,2013-07-03 12:02:00,
2013-07-03 08:07:00,65.1,62.2,29.29,NNW,337,0.0,2.0,90,0.00,,,0.00,WUHU21623XXSP,2013-07-03 12:07:00,
2013-07-03 08:12:00,65.1,62.2,29.29,South,180,0.0,2.0,90,0.00,,,0.00,WUHU21623XXSP,2013-07-03 12:12:00,
2013-07-03 08:16:00,65.1,62.2,29.29,SSW,202,0.0,0.0,90,0.00,,,0.00,WUHU21623XXSP,2013-07-03 12:16:00,
2013-07-03 08:20:00,65.3,62.3,29.29,SSE,157,0.0,0.0,90,0.00,,,0.00,WUHU21623XXSP,2013-07-03 12:20:00,
2013-07-03 08:25:00,65.5,62.5,29.29,SE,135,0.0,0.0,90,0.00,,,0.00,WUHU21623XXSP,2013-07-03 12:25:00,
2013-07-03 08:30:00,65.8,62.8,29.29,SE,135,0.0,0.0,90,0.00,,,0.00,WUHU21623XXSP,2013-07-03 12:30:00,
2013-07-03 08:35:00,66.0,63.0,29.29,WSW,247,0.0,0.0,90,0.00,,,0.00,WUHU21623XXSP,2013-07-03 12:35:00,
2013-07-03 08:40:00,66.2,63.4,29.29,SE,135,0.0,0.0,91,0.00,,,0.00,WUHU21623XXSP,2013-07-03 12:40:00,
2013-07-03 08:45:00,66.6,63.6,29.30,SSE,157,0.0,0.0,91,0.00,,,0.00,WUHU21623XXSP,2013-07-03 12:45:00,
2013-07-03 08:46:00,66.6,63.6,29.30,SSE,157,0.0,0.0,91,0.00,,,0.00,WUHU21623XXSP,2013-07-03 12:46:00,
2013-07-03 08:51:00,66.7,64.0,29.31,South,180,0.0,0.0,91,0.00,,,0.00,WUHU21623XXSP,2013-07-03 12:51:00,
2013-07-03 08:56:00,66.7,64.0,29.31,South,180,0.0,0.0,91,0.00,,,0.00,WUHU21623XXSP,2013-07-03 12:56:00,
2013-07-03 09:01:00,66.7,64.0,29.30,South,180,0.0,0.0,91,0.00,,,0.00,WUHU21623XXSP,2013-07-03 13:01:00,
2013-07-03 09:32:00,68.7,65.3,29.31,SSE,157,0.0,0.0,89,0.00,,,0.00,WUHU21623XXSP,2013-07-03 13:32:00,
2013-07-03 09:37:00,69.3,65.9,29.31,SE,135,0.0,0.0,89,0.00,,,0.00,WUHU21623XXSP,2013-07-03 13:37:00,
2013-07-03 09:42:00,69.6,66.2,29.31,SE,135,0.0,2.5,89,0.00,,,0.00,WUHU21623XXSP,2013-07-03 13:42:00,
2013-07-03 09:48:00,70.3,66.6,29.31,SSE,157,0.0,2.5,88,0.00,,,0.00,WUHU21623XXSP,2013-07-03 13:48:00,
2013-07-03 09:53:00,70.7,67.0,29.31,WSW,247,0.0,0.0,88,0.00,,,0.00,WUHU21623XXSP,2013-07-03 13:53:00,
2013-07-03 09:58:00,70.9,66.8,29.31,ESE,112,0.0,0.0,87,0.00,,,0.00,WUHU21623XXSP,2013-07-03 13:58:00,
2013-07-03 10:03:00,70.9,66.5,29.31,SSE,157,0.0,0.0,86,0.00,,,0.00,WUHU21623XXSP,2013-07-03 14:03:00,
2013-07-03 10:06:00,70.9,66.5,29.31,SSE,157,1.1,1.1,86,0.00,,,0.00,WUHU21623XXSP,2013-07-03 14:06:00,
2013-07-03 10:09:00,70.9,66.5,29.31,SSE,157,0.0,1.1,86,0.00,,,0.00,WUHU21623XXSP,2013-07-03 14:09:00,
2013-07-03 10:14:00,71.4,66.7,29.31,South,180,3.8,3.8,85,0.00,,,0.00,WUHU21623XXSP,2013-07-03 14:14:00,
2013-07-03 10:18:00,71.4,66.7,29.31,South,180,3.8,3.8,85,0.00,,,0.00,WUHU21623XXSP,2013-07-03 14:18:00,
2013-07-03 10:23:00,71.4,66.7,29.31,South,180,0.0,3.8,84,0.00,,,0.00,WUHU21623XXSP,2013-07-03 14:23:00,
2013-07-03 10:28:00,71.4,66.7,29.31,SSE,157,0.0,0.0,85,0.00,,,0.00,WUHU21623XXSP,2013-07-03 14:28:00,
2013-07-03 10:30:00,71.4,66.7,29.31,SSE,157,0.0,0.0,85,0.00,,,0.00,WUHU21623XXSP,2013-07-03 14:30:00,
2013-07-03 10:35:00,71.4,66.0,29.31,SSE,157,1.6,4.0,83,0.00,,,0.00,WUHU21623XXSP,2013-07-03 14:35:00,
2013-07-03 10:38:00,71.8,66.7,29.31,WSW,247,0.0,4.0,84,0.00,,,0.00,WUHU21623XXSP,2013-07-03 14:38:00,
2013-07-03 10:41:00,71.4,66.0,29.32,SSE,157,2.7,2.7,83,0.00,,,0.00,WUHU21623XXSP,2013-07-03 14:41:00,
2013-07-03 10:46:00,71.4,66.0,29.31,South,180,8.9,8.9,83,0.00,,,0.00,WUHU21623XXSP,2013-07-03 14:46:00,
2013-07-03 10:51:00,71.4,66.0,29.31,South,180,4.0,8.9,83,0.00,,,0.00,WUHU21623XXSP,2013-07-03 14:51:00,
2013-07-03 10:56:00,72.1,66.2,29.32,West,270,0.9,6.5,81,0.00,,,0.00,WUHU21623XXSP,2013-07-03 14:56:00,
2013-07-03 10:58:00,72.3,65.8,29.31,SW,225,6.0,6.5,80,0.00,,,0.00,WUHU21623XXSP,2013-07-03 14:58:00,
2013-07-03 11:03:00,72.7,66.0,29.32,SW,225,0.0,6.0,79,0.00,,,0.00,WUHU21623XXSP,2013-07-03 15:03:00,
2013-07-03 11:04:00,72.7,66.0,29.32,SW,225,0.0,6.0,79,0.00,,,0.00,WUHU21623XXSP,2013-07-03 15:04:00,
2013-07-03 11:09:00,73.2,66.4,29.32,ESE,112,0.0,8.1,79,0.00,,,0.00,WUHU21623XXSP,2013-07-03 15:09:00,
2013-07-03 11:15:00,73.9,66.7,29.32,SSE,157,15.7,15.7,78,0.00,,,0.00,WUHU21623XXSP,2013-07-03 15:15:00,
2013-07-03 11:20:00,74.3,66.7,29.33,SW,225,2.5,15.7,77,0.00,,,0.00,WUHU21623XXSP,2013-07-03 15:20:00,
2013-07-03 11:25:00,74.8,66.8,29.32,SSE,157,19.2,19.2,76,0.00,,,0.00,WUHU21623XXSP,2013-07-03 15:25:00,
2013-07-03 11:28:00,75.2,67.1,29.33,ESE,112,2.9,19.2,76,0.00,,,0.00,WUHU21623XXSP,2013-07-03 15:28:00,
2013-07-03 11:34:00,75.6,65.9,29.32,SW,225,6.3,19.2,72,0.00,,,0.00,WUHU21623XXSP,2013-07-03 15:34:00,
2013-07-03 11:39:00,74.8,65.6,29.32,ENE,67,0.0,6.3,73,0.00,,,0.00,WUHU21623XXSP,2013-07-03 15:39:00,
2013-07-03 11:40:00,74.8,65.6,29.32,ENE,67,0.0,6.3,73,0.00,,,0.00,WUHU21623XXSP,2013-07-03 15:40:00,
2013-07-03 11:45:00,74.5,65.3,29.32,South,180,0.0,3.1,73,0.00,,,0.00,WUHU21623XXSP,2013-07-03 15:45:00,
2013-07-03 11:50:00,74.7,65.3,29.32,SW,225,6.3,6.3,73,0.00,,,0.00,WUHU21623XXSP,2013-07-03 15:50:00,
2013-07-03 11:52:00,74.8,65.2,29.32,North,0,0.0,6.3,72,0.00,,,0.00,WUHU21623XXSP,2013-07-03 15:52:00,
2013-07-03 11:53:00,74.8,65.2,29.32,North,0,0.0,6.3,72,0.00,,,0.00,WUHU21623XXSP,2013-07-03 15:53:00,
2013-07-03 11:54:00,75.0,65.4,29.32,SW,225,1.8,6.3,72,0.00,,,0.00,WUHU21623XXSP,2013-07-03 15:54:00,
2013-07-03 11:59:00,75.2,65.4,29.32,WSW,247,4.5,6.3,72,0.00,,,0.00,WUHU21623XXSP,2013-07-03 15:59:00,
2013-07-03 12:04:00,75.6,65.7,29.31,SW,225,4.3,4.5,71,0.00,,,0.00,WUHU21623XXSP,2013-07-03 16:04:00,
2013-07-03 12:09:00,75.9,65.5,29.32,South,180,4.0,4.5,70,0.00,,,0.00,WUHU21623XXSP,2013-07-03 16:09:00,
2013-07-03 12:14:00,75.9,65.0,29.31,NNW,337,4.7,4.7,69,0.00,,,0.00,WUHU21623XXSP,2013-07-03 16:14:00,
2013-07-03 12:19:00,75.9,65.5,29.32,SE,135,0.0,4.7,70,0.00,,,0.00,WUHU21623XXSP,2013-07-03 16:19:00,
2013-07-03 12:25:00,76.3,64.9,29.31,North,0,1.8,7.4,68,0.00,,,0.00,WUHU21623XXSP,2013-07-03 16:25:00,
2013-07-03 12:30:00,76.3,64.9,29.33,SW,225,4.9,4.9,68,0.00,,,0.00,WUHU21623XXSP,2013-07-03 16:30:00,
2013-07-03 12:35:00,76.5,65.1,29.32,South,180,0.0,4.9,68,0.00,,,0.00,WUHU21623XXSP,2013-07-03 16:35:00,
2013-07-03 12:40:00,76.8,65.3,29.32,South,180,0.0,1.3,68,0.00,,,0.00,WUHU21623XXSP,2013-07-03 16:40:00,
2013-07-03 12:45:00,76.8,64.6,29.32,NNE,22,0.0,0.0,66,0.00,,,0.00,WUHU21623XXSP,2013-07-03 16:45:00,
2013-07-03 12:50:00,77.0,64.6,29.32,WSW,247,0.0,5.8,67,0.00,,,0.00,WUHU21623XXSP,2013-07-03 16:50:00,
2013-07-03 12:55:00,77.4,65.5,29.32,SW,225,0.0,1.6,67,0.00,,,0.00,WUHU21623XXSP,2013-07-03 16:55:00,
2013-07-03 13:00:00,77.5,65.3,29.33,South,180,0.0,2.0,66,0.00,,,0.00,WUHU21623XXSP,2013-07-03 17:00:00,
2013-07-03 13:05:00,77.7,65.4,29.32,SE,135,2.2,2.2,66,0.00,,,0.00,WUHU21623XXSP,2013-07-03 17:05:00,
2013-07-03 13:10:00,77.9,65.6,29.32,South,180,0.0,2.2,66,0.00,,,0.00,WUHU21623XXSP,2013-07-03 17:10:00,
2013-07-03 13:16:00,78.6,65.4,29.32,SW,225,3.8,8.1,64,0.00,,,0.00,WUHU21623XXSP,2013-07-03 17:16:00,
2013-07-03 13:21:00,78.6,65.4,29.31,SSW,202,0.0,3.8,64,0.00,,,0.00,WUHU21623XXSP,2013-07-03 17:21:00,
2013-07-03 13:26:00,78.1,64.9,29.32,SW,225,4.0,4.0,64,0.00,,,0.00,WUHU21623XXSP,2013-07-03 17:26:00,
2013-07-03 13:31:00,77.7,64.7,29.32,SW,225,4.0,4.0,65,0.00,,,0.00,WUHU21623XXSP,2013-07-03 17:31:00,
2013-07-03 13:36:00,77.5,64.8,29.32,SSW,202,2.2,4.0,65,0.00,,,0.00,WUHU21623XXSP,2013-07-03 17:36:00,
2013-07-03 13:41:00,78.1,65.8,29.32,SSW,202,7.8,7.8,66,0.00,,,0.00,WUHU21623XXSP,2013-07-03 17:41:00,
2013-07-03 13:46:00,77.9,65.2,29.32,SW,225,1.1,7.8,65,0.00,,,0.00,WUHU21623XXSP,2013-07-03 17:46:00,
2013-07-03 13:51:00,77.7,65.4,29.32,SSE,157,11.6,11.6,66,0.00,,,0.00,WUHU21623XXSP,2013-07-03 17:51:00,
2013-07-03 13:56:00,77.5,65.3,29.32,SSW,202,1.8,11.6,65,0.00,,,0.00,WUHU21623XXSP,2013-07-03 17:56:00,
2013-07-03 14:01:00,77.4,64.7,29.32,SW,225,0.0,1.8,65,0.00,,,0.00,WUHU21623XXSP,2013-07-03 18:01:00,
2013-07-03 14:07:00,77.7,65.4,29.32,SE,135,0.0,8.9,66,0.00,,,0.00,WUHU21623XXSP,2013-07-03 18:07:00,
2013-07-03 14:12:00,78.1,65.8,29.32,SE,135,5.1,8.9,65,0.00,,,0.00,WUHU21623XXSP,2013-07-03 18:12:00,
2013-07-03 14:17:00,78.1,65.3,29.32,West,270,0.0,5.1,65,0.00,,,0.00,WUHU21623XXSP,2013-07-03 18:17:00,
2013-07-03 14:22:00,77.7,65.0,29.32,WSW,247,4.9,4.9,65,0.00,,,0.00,WUHU21623XXSP,2013-07-03 18:22:00,
2013-07-03 14:28:00,77.7,65.4,29.32,SSW,202,2.5,4.9,66,0.00,,,0.00,WUHU21623XXSP,2013-07-03 18:28:00,
2013-07-03 14:33:00,77.7,65.9,29.32,South,180,4.5,4.5,67,0.00,,,0.00,WUHU21623XXSP,2013-07-03 18:33:00,
2013-07-03 14:38:00,78.1,65.8,29.32,NNW,337,3.1,4.5,66,0.00,,,0.00,WUHU21623XXSP,2013-07-03 18:38:00,
2013-07-03 14:43:00,78.1,65.8,29.32,West,270,0.0,4.5,66,0.00,,,0.00,WUHU21623XXSP,2013-07-03 18:43:00,
2013-07-03 14:48:00,77.9,65.3,29.32,West,270,0.0,3.1,66,0.00,,,0.00,WUHU21623XXSP,2013-07-03 18:48:00,
2013-07-03 14:53:00,77.9,65.6,29.32,West,270,3.4,3.4,66,0.00,,,0.00,WUHU21623XXSP,2013-07-03 18:53:00,
2013-07-03 14:58:00,77.9,65.6,29.33,NW,315,0.0,6.5,66,0.00,,,0.00,WUHU21623XXSP,2013-07-03 18:58:00,
2013-07-03 15:03:00,77.9,65.6,29.32,NW,315,5.6,6.5,66,0.00,,,0.00,WUHU21623XXSP,2013-07-03 19:03:00,
2013-07-03 15:08:00,77.9,66.0,29.32,SSE,157,3.6,5.6,67,0.00,,,0.00,WUHU21623XXSP,2013-07-03 19:08:00,
2013-07-03 15:13:00,77.9,65.6,29.32,West,270,0.0,5.6,66,0.00,,,0.00,WUHU21623XXSP,2013-07-03 19:13:00,
2013-07-03 15:18:00,77.9,65.6,29.32,South,180,1.3,3.6,66,0.00,,,0.00,WUHU21623XXSP,2013-07-03 19:18:00,
2013-07-03 15:23:00,78.1,65.8,29.32,SE,135,0.0,1.3,66,0.00,,,0.00,WUHU21623XXSP,2013-07-03 19:23:00,
2013-07-03 15:29:00,78.3,65.5,29.33,WSW,247,4.3,4.3,64,0.00,,,0.00,WUHU21623XXSP,2013-07-03 19:29:00,
2013-07-03 15:34:00,78.1,65.3,29.32,SSE,157,4.7,4.7,65,0.00,,,0.00,WUHU21623XXSP,2013-07-03 19:34:00,
2013-07-03 15:39:00,78.1,65.3,29.31,WSW,247,0.9,4.7,65,0.00,,,0.00,WUHU21623XXSP,2013-07-03 19:39:00,
2013-07-03 15:44:00,77.9,65.2,29.31,South,180,0.0,1.8,65,0.00,,,0.00,WUHU21623XXSP,2013-07-03 19:44:00,
2013-07-03 15:49:00,78.3,65.5,29.31,South,180,0.0,1.3,65,0.00,,,0.00,WUHU21623XXSP,2013-07-03 19:49:00,
2013-07-03 15:54:00,78.6,65.8,29.32,South,180,2.5,2.7,65,0.00,,,0.00,WUHU21623XXSP,2013-07-03 19:54:00,
2013-07-03 15:59:00,78.6,65.8,29.30,SSE,157,2.7,2.7,65,0.00,,,0.00,WUHU21623XXSP,2013-07-03 19:59:00,
2013-07-03 16:04:00,79.0,66.2,29.31,NW,315,0.0,2.7,65,0.00,,,0.00,WUHU21623XXSP,2013-07-03 20:04:00,
2013-07-03 16:10:00,78.6,65.4,29.31,SSW,202,1.1,2.7,64,0.00,,,0.00,WUHU21623XXSP,2013-07-03 20:10:00,
2013-07-03 16:15:00,78.6,65.4,29.31,West,270,0.7,1.1,64,0.00,,,0.00,WUHU21623XXSP,2013-07-03 20:15:00,
2013-07-03 16:20:00,78.8,65.6,29.31,NNW,337,0.0,1.1,64,0.00,,,0.00,WUHU21623XXSP,2013-07-03 20:20:00,
2013-07-03 16:25:00,79.0,65.8,29.31,South,180,1.6,6.7,64,0.00,,,0.00,WUHU21623XXSP,2013-07-03 20:25:00,
2013-07-03 16:30:00,79.0,65.3,29.30,South,180,0.0,6.7,63,0.00,,,0.00,WUHU21623XXSP,2013-07-03 20:30:00,
2013-07-03 16:35:00,79.2,65.5,29.30,North,0,0.0,0.0,63,0.00,,,0.00,WUHU21623XXSP,2013-07-03 20:35:00,
2013-07-03 16:40:00,79.3,65.2,29.31,SSW,202,6.3,6.3,62,0.00,,,0.00,WUHU21623XXSP,2013-07-03 20:40:00,
2013-07-03 16:45:00,79.3,64.8,29.30,South,180,0.0,6.3,61,0.00,,,0.00,WUHU21623XXSP,2013-07-03 20:45:00,
2013-07-03 16:50:00,79.3,65.2,29.30,South,180,0.0,0.0,63,0.00,,,0.00,WUHU21623XXSP,2013-07-03 20:50:00,
2013-07-03 16:55:00,79.3,65.2,29.30,ESE,112,0.0,1.3,62,0.00,,,0.00,WUHU21623XXSP,2013-07-03 20:55:00,
2013-07-03 17:00:00,79.9,65.7,29.30,South,180,2.2,2.2,62,0.00,,,0.00,WUHU21623XXSP,2013-07-03 21:00:00,
2013-07-03 17:05:00,80.4,66.2,29.30,WSW,247,0.0,2.2,62,0.00,,,0.00,WUHU21623XXSP,2013-07-03 21:05:00,
2013-07-03 17:10:00,80.4,65.3,29.29,WNW,292,2.2,3.6,60,0.00,,,0.00,WUHU21623XXSP,2013-07-03 21:10:00,
2013-07-03 17:15:00,80.1,65.0,29.29,NNW,337,1.3,3.6,60,0.00,,,0.00,WUHU21623XXSP,2013-07-03 21:15:00,
2013-07-03 17:20:00,80.2,65.2,29.29,South,180,0.0,2.2,60,0.00,,,0.00,WUHU21623XXSP,2013-07-03 21:20:00,
2013-07-03 17:25:00,80.4,65.8,29.29,SSW,202,2.9,2.9,61,0.00,,,0.00,WUHU21623XXSP,2013-07-03 21:25:00,
2013-07-03 17:30:00,80.4,65.8,29.30,SSW,202,0.0,2.9,61,0.00,,,0.00,WUHU21623XXSP,2013-07-03 21:30:00,
2013-07-03 17:35:00,80.4,65.3,29.29,South,180,1.8,2.9,60,0.00,,,0.00,WUHU21623XXSP,2013-07-03 21:35:00,
2013-07-03 17:40:00,80.4,65.8,29.29,SSE,157,0.0,1.8,61,0.00,,,0.00,WUHU21623XXSP,2013-07-03 21:40:00,
2013-07-03 17:46:00,80.6,65.9,29.29,SE,135,0.0,0.0,61,0.00,,,0.00,WUHU21623XXSP,2013-07-03 21:46:00,
2013-07-03 17:51:00,81.0,65.8,29.29,South,180,3.1,3.1,60,0.00,,,0.00,WUHU21623XXSP,2013-07-03 21:51:00,
2013-07-03 17:56:00,80.4,65.0,29.29,SW,225,2.9,3.1,59,0.00,,,0.00,WUHU21623XXSP,2013-07-03 21:56:00,
2013-07-03 18:01:00,80.4,64.8,29.29,SSE,157,0.0,3.1,58,0.00,,,0.00,WUHU21623XXSP,2013-07-03 22:01:00,
2013-07-03 18:06:00,80.4,64.3,29.29,ENE,67,0.0,0.0,59,0.00,,,0.00,WUHU21623XXSP,2013-07-03 22:06:00,
2013-07-03 18:11:00,80.4,64.8,29.28,SSW,202,1.8,4.7,59,0.00,,,0.00,WUHU21623XXSP,2013-07-03 22:11:00,
2013-07-03 18:16:00,80.4,64.8,29.29,West,270,0.0,4.7,59,0.00,,,0.00,WUHU21623XXSP,2013-07-03 22:16:00,
2013-07-03 18:21:00,80.8,65.1,29.29,SSW,202,2.2,2.2,59,0.00,,,0.00,WUHU21623XXSP,2013-07-03 22:21:00,
2013-07-03 18:27:00,81.5,65.8,29.29,South,180,0.0,2.2,59,0.00,,,0.00,WUHU21623XXSP,2013-07-03 22:27:00,
2013-07-03 18:32:00,81.5,65.2,29.29,SSW,202,2.2,4.0,58,0.00,,,0.00,WUHU21623XXSP,2013-07-03 22:32:00,
2013-07-03 18:37:00,81.9,65.0,29.29,SW,225,4.5,4.5,57,0.00,,,0.00,WUHU21623XXSP,2013-07-03 22:37:00,
2013-07-03 18:42:00,82.0,65.2,29.29,SSW,202,0.0,4.5,57,0.00,,,0.00,WUHU21623XXSP,2013-07-03 22:42:00,
2013-07-03 18:47:00,82.0,65.7,29.29,SW,225,0.0,3.4,58,0.00,,,0.00,WUHU21623XXSP,2013-07-03 22:47:00,
2013-07-03 18:52:00,82.0,65.2,29.29,SSW,202,0.0,1.1,57,0.00,,,0.00,WUHU21623XXSP,2013-07-03 22:52:00,
2013-07-03 18:57:00,81.3,64.6,29.28,WSW,247,0.0,1.1,57,0.00,,,0.00,WUHU21623XXSP,2013-07-03 22:57:00,
2013-07-03 19:02:00,80.8,64.6,29.29,WSW,247,2.5,2.5,58,0.00,,,0.00,WUHU21623XXSP,2013-07-03 23:02:00,
2013-07-03 19:07:00,80.6,64.4,29.29,SW,225,0.0,2.5,58,0.00,,,0.00,WUHU21623XXSP,2013-07-03 23:07:00,
2013-07-03 19:12:00,80.2,64.6,29.29,WSW,247,0.0,0.0,59,0.00,,,0.00,WUHU21623XXSP,2013-07-03 23:12:00,
2013-07-03 19:17:00,79.7,64.1,29.28,West,270,0.0,0.0,59,0.00,,,0.00,WUHU21623XXSP,2013-07-03 23:17:00,
2013-07-03 19:22:00,79.3,64.3,29.29,SSE,157,0.0,0.0,60,0.00,,,0.00,WUHU21623XXSP,2013-07-03 23:22:00,
2013-07-03 19:27:00,79.3,64.8,29.29,South,180,0.0,0.0,61,0.00,,,0.00,WUHU21623XXSP,2013-07-03 23:27:00,
2013-07-03 19:32:00,79.2,64.6,29.29,West,270,0.0,0.0,61,0.00,,,0.00,WUHU21623XXSP,2013-07-03 23:32:00,
2013-07-03 19:37:00,79.0,64.6,29.29,West,270,0.0,0.0,62,0.00,,,0.00,WUHU21623XXSP,2013-07-03 23:37:00,
2013-07-03 19:43:00,78.6,64.5,29.29,West,270,0.0,0.0,62,0.00,,,0.00,WUHU21623XXSP,2013-07-03 23:43:00,
2013-07-03 19:48:00,78.4,65.0,29.29,West,270,0.0,0.0,63,0.00,,,0.00,WUHU21623XXSP,2013-07-03 23:48:00,
2013-07-03 19:53:00,77.9,64.3,29.29,SW,225,0.0,0.0,63,0.00,,,0.00,WUHU21623XXSP,2013-07-03 23:53:00,
2013-07-03 19:58:00,77.5,64.4,29.29,WSW,247,0.0,0.0,64,0.00,,,0.00,WUHU21623XXSP,2013-07-03 23:58:00,
2013-07-03 20:03:00,77.4,64.2,29.29,WSW,247,0.0,0.0,64,0.00,,,0.00,WUHU21623XXSP,2013-07-04 00:03:00,
2013-07-03 20:08:00,77.2,64.5,29.29,SE,135,0.0,0.0,65,0.00,,,0.00,WUHU21623XXSP,2013-07-04 00:08:00,
2013-07-03 20:13:00,76.8,64.1,29.30,West,270,0.0,0.0,65,0.00,,,0.00,WUHU21623XXSP,2013-07-04 00:13:00,
2013-07-03 20:18:00,76.6,64.0,29.29,WSW,247,0.0,0.0,65,0.00,,,0.00,WUHU21623XXSP,2013-07-04 00:18:00,
2013-07-03 20:24:00,76.3,64.1,29.30,WSW,247,0.0,0.9,66,0.00,,,0.00,WUHU21623XXSP,2013-07-04 00:24:00,
2013-07-03 20:29:00,76.1,63.9,29.29,WSW,247,0.0,0.9,66,0.00,,,0.00,WUHU21623XXSP,2013-07-04 00:29:00,
2013-07-03 20:34:00,75.9,64.1,29.29,South,180,0.0,0.0,67,0.00,,,0.00,WUHU21623XXSP,2013-07-04 00:34:00,
2013-07-03 20:39:00,75.7,64.0,29.30,WSW,247,0.0,0.0,67,0.00,,,0.00,WUHU21623XXSP,2013-07-04 00:39:00,
2013-07-03 20:44:00,75.4,64.1,29.30,West,270,0.0,0.0,68,0.00,,,0.00,WUHU21623XXSP,2013-07-04 00:44:00,
2013-07-03 20:49:00,75.0,64.1,29.30,West,270,0.0,0.0,69,0.00,,,0.00,WUHU21623XXSP,2013-07-04 00:49:00,
2013-07-03 20:54:00,74.8,64.0,29.30,West,270,0.0,0.0,69,0.00,,,0.00,WUHU21623XXSP,2013-07-04 00:54:00,
2013-07-03 21:00:00,74.7,64.3,29.30,WSW,247,0.0,0.0,70,0.00,,,0.00,WUHU21623XXSP,2013-07-04 01:00:00,
2013-07-03 21:05:00,74.3,64.0,29.30,West,270,0.0,0.0,70,0.00,,,0.00,WUHU21623XXSP,2013-07-04 01:05:00,
2013-07-03 21:10:00,74.1,64.3,29.31,West,270,0.0,0.0,71,0.00,,,0.00,WUHU21623XXSP,2013-07-04 01:10:00,
2013-07-03 21:15:00,73.8,64.2,29.31,West,270,0.0,0.0,72,0.00,,,0.00,WUHU21623XXSP,2013-07-04 01:15:00,
2013-07-03 21:20:00,73.8,64.2,29.31,West,270,0.0,0.0,72,0.00,,,0.00,WUHU21623XXSP,2013-07-04 01:20:00,
2013-07-03 21:25:00,73.8,64.6,29.31,West,270,0.0,0.0,73,0.00,,,0.00,WUHU21623XXSP,2013-07-04 01:25:00,
2013-07-03 21:30:00,73.6,64.4,29.31,West,270,0.0,0.0,73,0.00,,,0.00,WUHU21623XXSP,2013-07-04 01:30:00,
2013-07-03 21:35:00,73.6,64.4,29.31,West,270,0.0,0.0,73,0.00,,,0.00,WUHU21623XXSP,2013-07-04 01:35:00,
2013-07-03 21:40:00,73.2,64.5,29.31,West,270,0.0,0.0,74,0.00,,,0.00,WUHU21623XXSP,2013-07-04 01:40:00,
2013-07-03 21:45:00,73.2,64.5,29.31,West,270,0.0,0.0,74,0.00,,,0.00,WUHU21623XXSP,2013-07-04 01:45:00,
2013-07-03 21:50:00,73.2,64.5,29.31,West,270,0.0,0.0,74,0.00,,,0.00,WUHU21623XXSP,2013-07-04 01:50:00,
2013-07-03 21:56:00,73.0,64.3,29.31,West,270,0.0,0.0,74,0.00,,,0.00,WUHU21623XXSP,2013-07-04 01:56:00,
2013-07-03 22:01:00,72.9,64.5,29.31,West,270,0.0,0.0,75,0.00,,,0.00,WUHU21623XXSP,2013-07-04 02:01:00,
2013-07-03 22:06:00,72.7,64.3,29.32,West,270,0.0,0.0,75,0.00,,,0.00,WUHU21623XXSP,2013-07-04 02:06:00,
2013-07-03 22:11:00,72.5,64.1,29.32,West,270,0.0,0.0,75,0.00,,,0.00,WUHU21623XXSP,2013-07-04 02:11:00,
2013-07-03 22:16:00,72.3,64.1,29.32,West,270,0.0,0.0,75,0.00,,,0.00,WUHU21623XXSP,2013-07-04 02:16:00,
2013-07-03 22:21:00,72.3,64.3,29.33,West,270,0.0,0.0,76,0.00,,,0.00,WUHU21623XXSP,2013-07-04 02:21:00,
2013-07-03 22:26:00,72.1,64.1,29.33,West,270,0.0,0.0,76,0.00,,,0.00,WUHU21623XXSP,2013-07-04 02:26:00,
2013-07-03 22:31:00,72.1,64.1,29.33,West,270,0.0,0.0,76,0.00,,,0.00,WUHU21623XXSP,2013-07-04 02:31:00,
2013-07-03 22:37:00,72.0,64.0,29.33,West,270,0.0,0.0,76,0.00,,,0.00,WUHU21623XXSP,2013-07-04 02:37:00,
2013-07-03 22:42:00,71.6,64.0,29.33,West,270,0.0,0.0,77,0.00,,,0.00,WUHU21623XXSP,2013-07-04 02:42:00,
2013-07-03 22:48:00,71.4,63.8,29.34,West,270,0.0,0.0,77,0.00,,,0.00,WUHU21623XXSP,2013-07-04 02:48:00,
2013-07-03 22:53:00,71.2,63.6,29.33,West,270,0.0,0.0,77,0.00,,,0.00,WUHU21623XXSP,2013-07-04 02:53:00,
2013-07-03 22:58:00,71.2,63.6,29.33,West,270,0.0,0.0,77,0.00,,,0.00,WUHU21623XXSP,2013-07-04 02:58:00,
2013-07-03 23:03:00,71.1,63.8,29.33,West,270,0.0,0.0,78,0.00,,,0.00,WUHU21623XXSP,2013-07-04 03:03:00,
2013-07-03 23:08:00,70.9,63.6,29.33,West,270,0.0,0.0,78,0.00,,,0.00,WUHU21623XXSP,2013-07-04 03:08:00,
2013-07-03 23:13:00,70.7,63.5,29.34,West,270,0.0,0.0,78,0.00,,,0.00,WUHU21623XXSP,2013-07-04 03:13:00,
2013-07-03 23:18:00,70.5,63.3,29.34,West,270,0.0,0.0,78,0.00,,,0.00,WUHU21623XXSP,2013-07-04 03:18:00,
2013-07-03 23:23:00,70.3,63.1,29.34,West,270,0.0,0.0,78,0.00,,,0.00,WUHU21623XXSP,2013-07-04 03:23:00,
2013-07-03 23:28:00,70.2,62.9,29.34,West,270,0.0,0.0,78,0.00,,,0.00,WUHU21623XXSP,2013-07-04 03:28:00,
2013-07-03 23:33:00,70.0,62.7,29.34,West,270,0.0,0.0,78,0.00,,,0.00,WUHU21623XXSP,2013-07-04 03:33:00,
2013-07-03 23:38:00,69.8,62.7,29.34,West,270,0.0,0.0,79,0.00,,,0.00,WUHU21623XXSP,2013-07-04 03:38:00,
2013-07-03 23:43:00,69.6,62.8,29.34,West,270,0.0,0.0,79,0.00,,,0.00,WUHU21623XXSP,2013-07-04 03:43:00,
2013-07-03 23:49:00,69.6,62.8,29.34,West,270,0.0,0.0,79,0.00,,,0.00,WUHU21623XXSP,2013-07-04 03:49:00,
2013-07-03 23:54:00,69.6,63.2,29.34,West,270,0.0,0.0,80,0.00,,,0.00,WUHU21623XXSP,2013-07-04 03:54:00,
2013-07-03 23:59:00,69.4,63.0,29.34,West,270,0.0,0.0,80,0.00,,,0.00,WUHU21623XXSP,2013-07-04 03:59:00,